QPF
0.00 0.00 0.00 0.00 0.00 0.00 0.00 0.00 0.00 0.00 0.01 0.01 0.04 0.05 0.06 0.06 0.05 0.02 0.01 0.00 0.00 0.01
0.00 0.00 0.00 0.00 0.00 0.00 0.00 0.00 0.01 0.02 0.04 0.05 0.04 0.04 0.04 0.03 0.01 0.00 0.00 0.00 0.01 0.01
0.00 0.01 0.00 0.01 0.01 0.01 0.01 0.01 0.02 0.02 0.02 0.04 0.02 0.02 0.01 0.01 0.00 0.00 0.03 0.03 0.05 0.04
0.01 0.01 0.01 0.01 0.01 0.01 0.02 0.02 0.01 0.01 0.01 0.01 0.00 0.00 0.00 0.01 0.00 0.01 0.03 0.07 0.09 0.05
0.01 0.01 0.01 0.01 0.01 0.01 0.00 0.00 0.00 0.00 0.00 0.00 0.00 0.00 0.00 0.01 0.02 0.03 0.09 0.13 0.15 0.08
0.01 0.00 0.01 0.01 0.00 0.00 0.00 0.00 0.00 0.00 0.00 0.00 0.00 0.00 0.01 0.04 0.07 0.10 0.13 0.09 0.16 0.05
0.00 0.00 0.00 0.00 0.00 0.00 0.00 0.00 0.00 0.00 0.00 0.00 0.00 0.00 0.01 0.12 0.11 0.12 0.10 0.06 0.10 0.05
0.00 0.00 0.00 0.00 0.00 0.00 0.00 0.00 0.00 0.00 0.00 0.00 0.02 0.03 0.04 0.09 0.04 0.09 0.14 0.09 0.09 0.09
0.00 0.00 0.00 0.00 0.00 0.00 0.00 0.00 0.00 0.00 0.00 0.05 0.03 0.01 0.00 0.05 0.07 0.02 0.08 0.10 0.09 0.11
0.00 0.00 0.00 0.00 0.00 0.00 0.00 0.00 0.00 0.00 0.04 0.08 0.00 0.00 0.00 0.03 0.05 0.04 0.09 0.07 0.14 0.12
0.00 0.00 0.00 0.00 0.00 0.00 0.01 0.03 0.05 0.03 0.09 0.01 0.00 0.00 0.00 0.00 0.00 0.00 0.01 0.01 0.07 0.06
0.00 0.00 0.00 0.00 0.01 0.01 0.03 0.05 0.05 0.10 0.08 0.01 0.00 0.00 0.00 0.00 0.00 0.00 0.00 0.00 0.01 0.00
0.00 0.00 0.00 0.00 0.00 0.02 0.03 0.03 0.09 0.10 0.04 0.00 0.00 0.00 0.00 0.00 0.00 0.00 0.00 0.00 0.00 0.00
0.00 0.00 0.00 0.00 0.00 0.01 0.02 0.03 0.07 0.06 0.01 0.00 0.00 0.00 0.00 0.00 0.00 0.00 0.00 0.00 0.00 0.00
MSLP
997.84 998.05 998.36 999.06 1000.00 1000.94 1001.74 1002.44 1002.92 1003.26 1003.48 1003.81 1004.12 1004.61 1005.07 1005.76 1006.18 1006.54 1006.81 1006.97 1007.23 1007.55
997.45 997.67 998.45 999.32 1000.18 1000.92 1001.57 1002.07 1002.62 1002.91 1003.22 1003.56 1004.12 1004.62 1005.13 1005.46 1005.90 1006.16 1006.51 1006.92 1007.16 1007.48
997.15 997.58 998.39 999.36 1000.06 1000.64 1001.12 1001.57 1002.23 1002.66 1003.14 1003.59 1003.96 1004.47 1004.94 1005.32 1005.65 1006.03 1006.46 1006.91 1007.26 1007.52
997.43 997.92 998.47 999.32 999.82 1000.30 1000.99 1001.54 1002.20 1002.64 1003.15 1003.52 1003.93 1004.29 1004.85 1005.14 1005.47 1005.88 1006.50 1006.95 1007.30 1007.39
997.93 998.45 999.03 999.65 1000.12 1000.58 1001.15 1001.63 1002.07 1002.48 1002.92 1003.42 1003.90 1004.38 1004.77 1005.18 1005.25 1005.79 1006.22 1006.62 1007.10 1007.12
998.37 999.00 999.60 1000.03 1000.38 1000.74 1001.23 1001.58 1002.01 1002.53 1003.03 1003.38 1003.74 1004.20 1004.55 1004.93 1005.32 1005.67 1006.04 1006.46 1006.85 1007.03
998.89 999.39 999.89 1000.25 1000.68 1001.14 1001.45 1001.89 1002.34 1002.71 1002.90 1003.15 1003.65 1004.13 1004.37 1004.83 1005.28 1005.53 1005.92 1006.27 1006.60 1006.82
999.16 999.69 1000.20 1000.67 1001.08 1001.39 1001.81 1002.15 1002.39 1002.75 1003.15 1003.53 1004.27 1004.70 1004.71 1004.94 1005.22 1005.63 1006.12 1006.30 1006.46 1006.81
999.30 999.90 1000.47 1000.95 1001.36 1001.78 1002.04 1002.28 1002.64 1003.00 1003.58 1004.33 1005.20 1005.87 1005.58 1005.54 1005.57 1005.66 1005.97 1006.18 1006.57 1007.10
999.32 1000.07 1000.66 1001.23 1001.66 1002.09 1002.53 1002.73 1003.08 1003.57 1004.11 1005.04 1005.80 1006.14 1005.99 1005.91 1005.76 1005.93 1005.94 1006.04 1006.43 1006.73
999.75 1000.52 1001.19 1001.63 1001.98 1002.43 1002.84 1003.23 1003.69 1004.04 1004.62 1005.36 1006.26 1006.34 1006.23 1006.12 1006.14 1006.25 1006.28 1006.45 1006.58 1007.03
1000.08 1000.85 1001.39 1001.94 1002.34 1002.71 1003.25 1003.75 1004.05 1004.36 1004.90 1005.63 1006.45 1006.67 1006.61 1006.63 1006.69 1006.91 1007.10 1007.32 1007.29 1007.40
1000.11 1000.71 1001.34 1002.05 1002.48 1003.11 1003.53 1003.84 1004.31 1004.70 1005.20 1005.98 1006.68 1006.96 1007.04 1007.22 1007.31 1007.52 1007.72 1007.84 1007.94 1008.04
1000.20 1000.88 1001.60 1002.09 1002.66 1003.25 1003.50 1003.89 1004.47 1005.08 1005.61 1006.15 1006.72 1007.28 1007.32 1007.44 1007.51 1007.78 1008.07 1008.30 1008.55 1009.19
Thickness
5766 5765 5764 5758 5748 5739 5732 5727 5724 5720 5718 5715 5712 5707 5701 5693 5687 5682 5675 5673 5667 5663
5762 5761 5755 5748 5740 5734 5729 5725 5719 5718 5714 5711 5706 5700 5693 5688 5682 5679 5674 5668 5664 5659
5758 5756 5748 5742 5735 5730 5727 5723 5717 5714 5709 5705 5701 5695 5688 5685 5680 5675 5670 5664 5659 5655
5749 5746 5742 5735 5731 5728 5723 5718 5712 5708 5702 5699 5695 5692 5685 5681 5676 5671 5664 5659 5655 5652
5739 5735 5730 5726 5724 5721 5716 5713 5708 5703 5699 5694 5689 5685 5680 5675 5674 5667 5661 5656 5652 5651
5728 5724 5720 5718 5717 5715 5710 5707 5703 5697 5692 5689 5686 5682 5678 5673 5668 5664 5660 5655 5651 5649
5719 5717 5714 5713 5710 5706 5703 5698 5694 5690 5688 5686 5683 5678 5675 5669 5665 5660 5654 5652 5649 5648
5712 5711 5709 5705 5702 5698 5694 5691 5688 5684 5681 5679 5672 5668 5667 5665 5661 5655 5648 5647 5647 5645
5707 5706 5702 5699 5694 5691 5688 5685 5681 5677 5673 5667 5660 5651 5653 5655 5654 5652 5648 5644 5643 5641
5704 5698 5695 5692 5688 5685 5680 5678 5674 5670 5666 5658 5653 5647 5647 5647 5650 5647 5647 5646 5644 5643
5696 5691 5687 5684 5682 5678 5675 5672 5667 5664 5660 5654 5646 5643 5644 5644 5644 5643 5643 5643 5643 5641
5691 5685 5681 5678 5675 5674 5669 5665 5663 5660 5655 5649 5643 5638 5639 5639 5639 5637 5636 5635 5636 5638
5688 5683 5679 5674 5672 5668 5665 5663 5659 5655 5651 5644 5639 5633 5633 5633 5633 5630 5628 5630 5631 5630
5684 5680 5675 5672 5668 5663 5663 5661 5656 5650 5647 5642 5637 5632 5630 5630 5631 5628 5626 5625 5626 5623